ROMMA est une association bénévole à but non lucratif. Votre soutien est indispensable : ADHERER à ROMMA ou FAIRE un DON

Crempigny-Bonneguête - (74, Haute-Savoie)

Albanais-Montagne des Princes (500 m)   Longitude: 05° 54' 5" E   Latitude: 45° 57' 0" N Station partenaire n°10
 

Détail journalier du     <<     >>

Température Precipitation Humidité Pression Vent Dir Rafale Dir. rafale Ensol. 20 cm au dessus du sol
Heure (°C) (mm) (%) (hPa) (km/h) (km/h) (min) (°C)
01:00 8.808810224NO8NO08.3
02:00 8.208910223NO6NO07.2
03:00 7.809010223NO6NO06.7
04:00 7.209210214NO6NO06.1
05:00 6.809410212NO5NO05.6
06:00 6.409410212NO5NO05.0
07:00 6.209510222NO5NO05.0
08:00 6.50.29610222NNO5NO05.6
09:00 7.309710221NNO3NNO56.1
10:00 9.009310223SO6SO5011.7
11:00 11.708610223SE8SSO6014.4
12:00 13.907310215ENE13ENE3515.6
13:00 15.906910205SE13NNE6018.3
14:00 16.306310206E18ONO6018.9
15:00 17.405510206NO19NO5019.4
16:00 19.105310196NO13NO6021.1
17:00 19.405010186NNE16ENE5520.6
18:00 19.004910185ENE15E5020.6
19:00 18.305210187NNE19ENE6018.9
20:00 15.705610187N18N2014.4
21:00 14.905710195NO10N013.9
22:00 13.406010195NO10NNO012.2
23:00 13.006210194NO10NO011.7
minuit 13.206610202NE6NNE010.6

Graphique du 17-04-2019

 

Serveur OMMA